Time,TemperatureF,DewpointF,PressureIn,WindDirection,WindDirectionDegrees,WindSpeedMPH,WindSpeedGustMPH,Humidity,HourlyPrecipIn,Conditions,Clouds,dailyrainin,SoftwareType,DateUTC
2013-07-16 00:09:00,69.6,69.0,30.02,SE,129,3.0,5.0,96,0.00,,,0.00,weatherlink.com 1.10,2013-07-16 05:09:00,
2013-07-16 00:24:00,69.4,68.0,30.02,ESE,116,2.0,7.0,96,0.00,,,0.00,weatherlink.com 1.10,2013-07-16 05:24:00,
2013-07-16 00:39:00,69.4,68.0,30.02,ESE,118,2.0,7.0,96,0.00,,,0.00,weatherlink.com 1.10,2013-07-16 05:39:00,
2013-07-16 00:54:00,69.5,68.0,30.02,ESE,112,5.0,5.0,96,0.00,,,0.00,weatherlink.com 1.10,2013-07-16 05:54:00,
2013-07-16 01:09:00,69.5,68.0,30.02,SE,128,1.0,6.0,96,0.00,,,0.00,weatherlink.com 1.10,2013-07-16 06:09:00,
2013-07-16 01:24:00,69.5,68.0,30.02,SE,127,2.0,6.0,96,0.00,,,0.00,weatherlink.com 1.10,2013-07-16 06:24:00,
2013-07-16 01:39:00,69.7,69.0,30.02,SE,134,4.0,5.0,96,0.00,,,0.00,weatherlink.com 1.10,2013-07-16 06:39:00,
2013-07-16 01:54:00,69.7,69.0,30.02,SE,145,5.0,9.0,96,0.00,,,0.00,weatherlink.com 1.10,2013-07-16 06:54:00,
2013-07-16 02:09:00,69.8,69.0,30.02,SE,145,3.0,5.0,96,0.00,,,0.00,weatherlink.com 1.10,2013-07-16 07:09:00,
2013-07-16 02:24:00,69.8,69.0,30.02,SE,133,2.0,8.0,96,0.00,,,0.00,weatherlink.com 1.10,2013-07-16 07:24:00,
2013-07-16 02:39:00,70.0,69.0,30.02,SE,124,2.0,6.0,96,0.00,,,0.00,weatherlink.com 1.10,2013-07-16 07:39:00,
2013-07-16 02:54:00,70.1,69.0,30.02,SE,124,2.0,2.0,96,0.00,,,0.00,weatherlink.com 1.10,2013-07-16 07:54:00,
2013-07-16 03:09:00,70.2,69.0,30.01,SE,131,0.0,5.0,96,0.00,,,0.00,weatherlink.com 1.10,2013-07-16 08:09:00,
2013-07-16 03:24:00,70.3,69.0,30.01,SE,141,2.0,7.0,96,0.00,,,0.00,weatherlink.com 1.10,2013-07-16 08:24:00,
2013-07-16 03:39:00,70.4,69.0,30.01,SE,141,3.0,5.0,96,0.00,,,0.00,weatherlink.com 1.10,2013-07-16 08:39:00,
2013-07-16 03:54:00,70.5,69.0,30.01,SE,132,4.0,8.0,96,0.00,,,0.00,weatherlink.com 1.10,2013-07-16 08:54:00,
2013-07-16 04:09:00,70.6,70.0,30.01,SE,132,3.0,6.0,96,0.00,,,0.00,weatherlink.com 1.10,2013-07-16 09:09:00,
2013-07-16 04:24:00,70.7,70.0,30.01,SE,129,5.0,7.0,96,0.00,,,0.00,weatherlink.com 1.10,2013-07-16 09:24:00,
2013-07-16 04:39:00,70.8,70.0,30.01,SE,127,6.0,8.0,96,0.00,,,0.00,weatherlink.com 1.10,2013-07-16 09:39:00,
2013-07-16 04:54:00,70.9,70.0,30.01,SE,135,4.0,7.0,96,0.00,,,0.00,weatherlink.com 1.10,2013-07-16 09:54:00,
2013-07-16 05:09:00,70.9,70.0,30.02,SE,135,3.0,4.0,96,0.00,,,0.00,weatherlink.com 1.10,2013-07-16 10:09:00,
2013-07-16 05:24:00,71.0,70.0,30.02,SE,135,2.0,4.0,96,0.00,,,0.00,weatherlink.com 1.10,2013-07-16 10:24:00,
2013-07-16 05:39:00,71.1,70.0,30.02,SE,135,3.0,4.0,97,0.00,,,0.00,weatherlink.com 1.10,2013-07-16 10:39:00,
2013-07-16 05:54:00,71.3,70.0,30.02,SE,134,2.0,5.0,97,0.00,,,0.00,weatherlink.com 1.10,2013-07-16 10:54:00,
2013-07-16 06:09:00,71.4,70.0,30.02,SE,126,5.0,8.0,96,0.00,,,0.00,weatherlink.com 1.10,2013-07-16 11:09:00,
2013-07-16 06:24:00,71.5,70.0,30.03,SE,131,1.0,7.0,96,0.00,,,0.00,weatherlink.com 1.10,2013-07-16 11:24:00,
2013-07-16 06:39:00,71.7,71.0,30.04,ESE,123,2.0,7.0,97,0.00,,,0.00,weatherlink.com 1.10,2013-07-16 11:39:00,
2013-07-16 06:54:00,71.9,71.0,30.04,ESE,121,1.0,6.0,97,0.00,,,0.00,weatherlink.com 1.10,2013-07-16 11:54:00,
2013-07-16 07:09:00,72.1,71.0,30.05,ESE,119,5.0,7.0,97,0.00,,,0.00,weatherlink.com 1.10,2013-07-16 12:09:00,
2013-07-16 07:24:00,72.2,71.0,30.05,SE,124,3.0,8.0,97,0.00,,,0.00,weatherlink.com 1.10,2013-07-16 12:24:00,
2013-07-16 07:39:00,72.4,72.0,30.06,SE,129,2.0,7.0,97,0.00,,,0.00,weatherlink.com 1.10,2013-07-16 12:39:00,
2013-07-16 07:54:00,72.6,72.0,30.06,ESE,112,7.0,9.0,97,0.00,,,0.00,weatherlink.com 1.10,2013-07-16 12:54:00,
2013-07-16 08:09:00,72.7,72.0,30.06,SE,126,3.0,9.0,97,0.00,,,0.00,weatherlink.com 1.10,2013-07-16 13:09:00,
2013-07-16 08:24:00,72.9,72.0,30.07,ESE,110,2.0,8.0,97,0.00,,,0.00,weatherlink.com 1.10,2013-07-16 13:24:00,
2013-07-16 08:39:00,73.1,72.0,30.07,ESE,114,3.0,10.0,97,0.00,,,0.00,weatherlink.com 1.10,2013-07-16 13:39:00,
2013-07-16 08:54:00,73.8,73.0,30.07,ESE,106,5.0,11.0,97,0.00,,,0.00,weatherlink.com 1.10,2013-07-16 13:54:00,
2013-07-16 09:09:00,74.2,73.0,30.07,ESE,115,7.0,12.0,96,0.00,,,0.00,weatherlink.com 1.10,2013-07-16 14:09:00,
2013-07-16 09:24:00,74.2,73.0,30.07,SE,130,3.0,11.0,96,0.00,,,0.00,weatherlink.com 1.10,2013-07-16 14:24:00,
2013-07-16 09:39:00,74.6,73.0,30.08,ESE,110,6.0,9.0,96,0.00,,,0.00,weatherlink.com 1.10,2013-07-16 14:39:00,
2013-07-16 09:55:00,75.2,73.0,30.07,SE,133,4.0,11.0,94,0.00,,,0.00,weatherlink.com 1.10,2013-07-16 14:55:00,
2013-07-16 10:10:00,75.6,74.0,30.08,ESE,110,6.0,10.0,94,0.00,,,0.00,weatherlink.com 1.10,2013-07-16 15:10:00,
2013-07-16 10:25:00,78.0,75.0,30.08,ESE,116,3.0,10.0,89,0.00,,,0.00,weatherlink.com 1.10,2013-07-16 15:25:00,
2013-07-16 10:40:00,77.5,74.0,30.08,East,87,3.0,10.0,89,0.00,,,0.00,weatherlink.com 1.10,2013-07-16 15:40:00,
2013-07-16 10:55:00,77.6,75.0,30.08,East,100,5.0,9.0,90,0.00,,,0.00,weatherlink.com 1.10,2013-07-16 15:55:00,
2013-07-16 11:10:00,79.8,75.0,30.08,ESE,109,6.0,10.0,84,0.00,,,0.00,weatherlink.com 1.10,2013-07-16 16:10:00,
2013-07-16 11:25:00,79.7,74.0,30.08,ESE,112,8.0,13.0,83,0.00,,,0.00,weatherlink.com 1.10,2013-07-16 16:25:00,
2013-07-16 11:40:00,81.6,75.0,30.09,SSE,166,8.0,13.0,80,0.00,,,0.00,weatherlink.com 1.10,2013-07-16 16:40:00,
2013-07-16 11:55:00,82.9,75.0,30.08,SE,133,5.0,11.0,78,0.00,,,0.00,weatherlink.com 1.10,2013-07-16 16:55:00,
2013-07-16 12:10:00,82.8,74.0,30.08,East,94,11.0,16.0,75,0.00,,,0.00,weatherlink.com 1.10,2013-07-16 17:10:00,
2013-07-16 12:25:00,82.1,74.0,30.08,SE,143,7.0,15.0,76,0.00,,,0.00,weatherlink.com 1.10,2013-07-16 17:25:00,
2013-07-16 12:40:00,81.1,73.0,30.08,ESE,115,5.0,10.0,77,0.00,,,0.00,weatherlink.com 1.10,2013-07-16 17:40:00,
2013-07-16 12:55:00,83.0,74.0,30.07,ESE,120,7.0,11.0,74,0.00,,,0.00,weatherlink.com 1.10,2013-07-16 17:55:00,
2013-07-16 13:10:00,84.0,73.0,30.07,ESE,104,5.0,16.0,69,0.00,,,0.00,weatherlink.com 1.10,2013-07-16 18:10:00,
2013-07-16 13:25:00,85.9,73.0,30.06,SE,125,9.0,13.0,65,0.00,,,0.00,weatherlink.com 1.10,2013-07-16 18:25:00,
2013-07-16 13:40:00,85.7,73.0,30.05,ESE,122,14.0,15.0,65,0.00,,,0.00,weatherlink.com 1.10,2013-07-16 18:40:00,
2013-07-16 13:55:00,85.3,72.0,30.05,ESE,110,8.0,15.0,64,0.00,,,0.00,weatherlink.com 1.10,2013-07-16 18:55:00,
2013-07-16 14:10:00,86.3,71.0,30.05,East,91,5.0,12.0,61,0.00,,,0.00,weatherlink.com 1.10,2013-07-16 19:10:00,
2013-07-16 14:25:00,87.5,72.0,30.04,SE,124,10.0,13.0,61,0.00,,,0.00,weatherlink.com 1.10,2013-07-16 19:25:00,
2013-07-16 14:40:00,87.5,72.0,30.04,ESE,102,8.0,14.0,61,0.00,,,0.00,weatherlink.com 1.10,2013-07-16 19:40:00,
2013-07-16 14:55:00,86.5,72.0,30.03,ENE,58,10.0,13.0,62,0.00,,,0.00,weatherlink.com 1.10,2013-07-16 19:55:00,
2013-07-16 15:10:00,86.1,72.0,30.03,SE,133,5.0,12.0,62,0.00,,,0.00,weatherlink.com 1.10,2013-07-16 20:10:00,
2013-07-16 15:25:00,86.5,71.0,30.03,SE,133,4.0,10.0,61,0.00,,,0.00,weatherlink.com 1.10,2013-07-16 20:25:00,
2013-07-16 15:40:00,86.5,71.0,30.02,East,86,7.0,10.0,61,0.00,,,0.00,weatherlink.com 1.10,2013-07-16 20:40:00,
2013-07-16 15:55:00,86.1,72.0,30.02,ESE,116,6.0,10.0,62,0.00,,,0.00,weatherlink.com 1.10,2013-07-16 20:55:00,
2013-07-16 16:25:00,75.5,73.0,30.04,ESE,104,1.0,3.0,90,0.25,,,0.25,weatherlink.com 1.10,2013-07-16 21:25:00,
2013-07-16 16:40:00,75.5,73.0,30.03,ESE,104,0.0,3.0,91,0.26,,,0.26,weatherlink.com 1.10,2013-07-16 21:40:00,
2013-07-16 16:55:00,76.5,74.0,30.03,ESE,104,0.0,0.0,91,0.26,,,0.26,weatherlink.com 1.10,2013-07-16 21:55:00,
2013-07-16 17:10:00,77.0,75.0,30.03,ESE,104,0.0,3.0,92,0.15,,,0.26,weatherlink.com 1.10,2013-07-16 22:10:00,
2013-07-16 17:25:00,77.3,75.0,30.03,North,5,3.0,6.0,93,0.01,,,0.26,weatherlink.com 1.10,2013-07-16 22:25:00,
2013-07-16 17:40:00,76.7,74.0,30.02,NNE,13,4.0,9.0,91,0.00,,,0.26,weatherlink.com 1.10,2013-07-16 22:40:00,
2013-07-16 17:55:00,77.3,74.0,30.02,NE,39,3.0,5.0,90,0.00,,,0.26,weatherlink.com 1.10,2013-07-16 22:55:00,
2013-07-16 18:10:00,77.5,74.0,30.01,East,97,1.0,5.0,90,0.00,,,0.26,weatherlink.com 1.10,2013-07-16 23:10:00,
2013-07-16 18:25:00,77.7,75.0,30.01,ENE,66,1.0,3.0,90,0.00,,,0.26,weatherlink.com 1.10,2013-07-16 23:25:00,
2013-07-16 18:40:00,77.8,74.0,30.01,ENE,66,0.0,3.0,89,0.00,,,0.26,weatherlink.com 1.10,2013-07-16 23:40:00,
2013-07-16 18:55:00,77.6,74.0,30.02,SSE,166,2.0,4.0,88,0.00,,,0.26,weatherlink.com 1.10,2013-07-16 23:55:00,
2013-07-16 19:10:00,77.6,74.0,30.03,SSE,166,0.0,2.0,89,0.00,,,0.26,weatherlink.com 1.10,2013-07-17 00:10:00,
2013-07-16 19:25:00,77.1,73.0,30.04,SSE,166,0.0,0.0,88,0.00,,,0.26,weatherlink.com 1.10,2013-07-17 00:25:00,
2013-07-16 19:40:00,77.3,74.0,30.05,SSE,166,3.0,3.0,89,0.00,,,0.26,weatherlink.com 1.10,2013-07-17 00:40:00,
2013-07-16 20:17:00,73.7,71.0,30.08,ESE,109,15.0,23.0,90,0.13,,,0.39,weatherlink.com 1.10,2013-07-17 01:17:00,
2013-07-16 20:26:00,72.7,70.0,30.08,ESE,118,13.0,21.0,92,0.16,,,0.42,weatherlink.com 1.10,2013-07-17 01:26:00,
2013-07-16 20:41:00,72.0,70.0,30.09,SE,126,7.0,17.0,93,0.18,,,0.44,weatherlink.com 1.10,2013-07-17 01:41:00,
2013-07-16 20:56:00,71.5,69.0,30.08,ESE,117,7.0,14.0,93,0.21,,,0.47,weatherlink.com 1.10,2013-07-17 01:56:00,
2013-07-16 21:11:00,71.4,70.0,30.09,ESE,116,9.0,15.0,94,0.13,,,0.50,weatherlink.com 1.10,2013-07-17 02:11:00,
2013-07-16 21:27:00,71.6,70.0,30.09,SE,126,6.0,11.0,94,0.12,,,0.54,weatherlink.com 1.10,2013-07-17 02:27:00,
2013-07-16 21:41:00,71.7,70.0,30.09,SE,124,6.0,9.0,94,0.14,,,0.58,weatherlink.com 1.10,2013-07-17 02:41:00,
2013-07-16 21:56:00,71.8,70.0,30.09,SE,135,2.0,7.0,95,0.12,,,0.60,weatherlink.com 1.10,2013-07-17 02:56:00,
2013-07-16 22:11:00,71.8,70.0,30.10,SE,133,0.0,4.0,95,0.11,,,0.61,weatherlink.com 1.10,2013-07-17 03:11:00,
2013-07-16 22:26:00,71.9,71.0,30.10,SE,133,0.0,3.0,95,0.07,,,0.61,weatherlink.com 1.10,2013-07-17 03:26:00,
2013-07-16 22:41:00,72.0,71.0,30.10,SE,133,4.0,5.0,95,0.03,,,0.61,weatherlink.com 1.10,2013-07-17 03:41:00,
2013-07-16 22:56:00,72.0,71.0,30.10,ESE,110,2.0,5.0,95,0.01,,,0.61,weatherlink.com 1.10,2013-07-17 03:56:00,
2013-07-16 23:11:00,71.9,71.0,30.11,ESE,118,6.0,6.0,95,0.00,,,0.61,weatherlink.com 1.10,2013-07-17 04:11:00,
2013-07-16 23:26:00,71.9,71.0,30.11,ESE,121,0.0,5.0,95,0.00,,,0.61,weatherlink.com 1.10,2013-07-17 04:26:00,
2013-07-16 23:41:00,71.9,71.0,30.12,SE,146,3.0,5.0,95,0.00,,,0.61,weatherlink.com 1.10,2013-07-17 04:41:00,
2013-07-16 23:56:00,71.8,71.0,30.12,SE,146,1.0,4.0,96,0.00,,,0.61,weatherlink.com 1.10,2013-07-17 04:56:00,